Location: Ebendorf
(52.1827°N, 11.5706°E)
Time: 09:42:25
(UTC+00:00)

Timation 2 Rocket - Pass Details

Date: 15 May 2021
Orbit: 907 x 1074 km, 70.0° (Epoch: 20 June)

Event Time Altitude Azimuth Distance (km) Brightness Sun altitude
Rises 00:23:34 0° 326° (NW) 3,556 7.5 -17.2°
Reaches altitude 10° 00:26:04 10° 325° (NW) 2,604 6.7 -17.0°
Maximum altitude 00:32:03 76° 241° (WSW) 942 3.8 -16.7°
Enters shadow 00:37:15 14° 158° (SSE) 2,314 5.6 -16.4°
